This is the latest recevied weather packets stored in our database for station/object KB4RFE. If no packets are shown the sender has not sent any weather packets the latest 10 day(s).
| Time | Temp. | Humidity | Pressure | Rain* | Wind** | Luminosity | Snow |
|---|---|---|---|---|---|---|---|
| 1788625683 | 33.89° C | 66% | 1016.1 hPa | 0 mm | - | 829 W/m² | - |
| 1788625377 | 33.89° C | 65% | 1016.1 hPa | 0 mm | - | 820 W/m² | - |
| 1788625077 | 33.89° C | 63% | 1016.4 hPa | 0 mm | - | 786 W/m² | - |
| 1788624776 | 33.33° C | 68% | 1016.5 hPa | 0 mm | - | 818 W/m² | - |
| 1788624475 | 32.78° C | 67% | 1016.6 hPa | 0 mm | - | 616 W/m² | - |
| 1788624169 | 32.78° C | 65% | 1016.7 hPa | 0 mm | - | 147 W/m² | - |
| 1788623864 | 33.33° C | 69% | 1016.6 hPa | 0 mm | - | 219 W/m² | - |
| 1788623563 | 32.78° C | 66% | 1016.5 hPa | 0 mm | - | 790 W/m² | - |
| 1788623257 | 32.78° C | 67% | 1016.7 hPa | 0 mm | - | 772 W/m² | - |
| 1788622953 | 32.78° C | 68% | 1016.8 hPa | 0 mm | - | 783 W/m² | - |
| 1788622648 | 32.78° C | 67% | 1016.8 hPa | 0 mm | - | 205 W/m² | - |
| 1788622344 | 32.22° C | 71% | 1016.7 hPa | 0 mm | - | 776 W/m² | - |
| 1788622039 | 32.22° C | 72% | 1016.7 hPa | 0 mm | - | 724 W/m² | - |
| 1788621733 | 32.22° C | 72% | 1016.8 hPa | 0 mm | - | 203 W/m² | - |
| 1788621433 | 32.78° C | 70% | 1016.6 hPa | 0 mm | - | 244 W/m² | - |
| 1788621129 | 32.22° C | 72% | 1016.7 hPa | 0 mm | - | 800 W/m² | - |
| 1788620824 | 31.67° C | 76% | 1016.9 hPa | 0 mm | - | 724 W/m² | - |
| 1788620522 | 31.67° C | 74% | 1016.9 hPa | 0 mm | - | 682 W/m² | - |
| 1788620220 | 32.22° C | 71% | 1016.8 hPa | 0 mm | - | 108 W/m² | - |
| 1788619915 | 31.67° C | 72% | 1016.7 hPa | 0 mm | - | 355 W/m² | - |
| 1788619609 | 31.67° C | 76% | 1016.8 hPa | 0 mm | - | 647 W/m² | - |
| 1788619308 | 31.67° C | 73% | 1016.7 hPa | 0 mm | - | 664 W/m² | - |
| 1788619009 | 31.11° C | 76% | 1016.7 hPa | 0 mm | - | 683 W/m² | - |
| 1788618709 | 31.11° C | 75% | 1016.9 hPa | 0 mm | - | 244 W/m² | - |
| 1788618407 | 30.56° C | 79% | 1016.8 hPa | 0 mm | - | 629 W/m² | - |
* Rain latest hour (hover to see other rain measurements)
** Current wind speed in m/s (hover to see current wind gust speed)